Location: Oberwangen
(47.4286°N, 8.9679°E)
Time: 07:49:31
(UTC+00:00)

Cosmos 1447 Rocket - Pass Details

Date: 25 October 2021
Orbit: 953 x 996 km, 82.9° (Epoch: 27 November)

Event Time Altitude Azimuth Distance (km) Brightness Sun altitude
Rises 17:29:07 0° 354° (N) 3,645 7.5 -12.6°
Reaches altitude 10° 17:31:43 10° 360° (N) 2,694 6.8 -13.0°
Maximum altitude 17:37:42 51° 76° (ENE) 1,187 4.6 -14.0°
Drops below altitude 10° 17:43:39 10° 151° (SSE) 2,682 6.5 -15.0°
Sets 17:46:13 0° 157° (SSE) 3,628 7.3 -15.5°
